SL-12 DEB

基本信息
目录编号:
43686
目录名称:
SL-12 DEB
国际标识:
2010-007AL
轨道中心:
EARTH
物体状态:
在轨
发射日期:
2010-03-01 UTC
轨道信息
数据来源: 国际轨道数据
星历时间: 2023-12-16T16:09:20+0800
半长轴: 16107.705km
偏心率: 0.5692823
轨道倾角: 64.691°
近地点辐角: 339.049°
升交点赤经: 182.624°
平近点角: 4.844°
近地点: 559.738km
远地点: 18899.402km
周期: 339.086分钟
每日圈数: 4.246707
详细信息
发射场:
TTMTR
轨道高度:
LEO
数据来源:
AOE Integration Group
参考系:
TEME
时间系统:
UTC
历元类型:
SGP4
2D轨道图
3D轨道图
轨道高度分析图
轨道倾角分析图
轨道综合分析图
查看轨道综合分析图